QPF
0.02 0.01 0.01 0.01 0.01 0.01 0.01 0.01 0.01 0.02 0.02 0.01 0.03 0.03 0.02 0.01 0.01 0.01 0.01 0.01 0.01 0.01 0.02 0.03 0.03 0.03 0.02 0.01 0.01 0.01 0.02 0.01 0.01 0.01 0.01 0.02 0.03 0.04 0.03 0.02 0.05 0.06 0.04 0.03
0.02 0.01 0.00 0.00 0.01 0.01 0.01 0.01 0.01 0.02 0.01 0.01 0.02 0.03 0.02 0.01 0.01 0.01 0.01 0.01 0.01 0.01 0.01 0.01 0.01 0.01 0.01 0.01 0.00 0.01 0.02 0.02 0.02 0.01 0.01 0.01 0.02 0.03 0.03 0.02 0.03 0.04 0.04 0.05
0.00 0.00 0.00 0.00 0.01 0.00 0.01 0.01 0.00 0.01 0.01 0.01 0.03 0.03 0.02 0.01 0.01 0.01 0.01 0.01 0.01 0.01 0.01 0.02 0.02 0.01 0.01 0.00 0.00 0.00 0.01 0.01 0.01 0.01 0.01 0.01 0.02 0.04 0.04 0.03 0.03 0.03 0.03 0.03
0.00 0.00 0.00 0.00 0.00 0.00 0.00 0.00 0.00 0.01 0.02 0.03 0.03 0.04 0.02 0.01 0.01 0.01 0.00 0.00 0.00 0.01 0.01 0.02 0.02 0.02 0.01 0.01 0.00 0.00 0.01 0.01 0.01 0.01 0.01 0.01 0.01 0.02 0.03 0.03 0.03 0.03 0.03 0.03
0.00 0.00 0.00 0.00 0.00 0.00 0.00 0.00 0.01 0.01 0.01 0.02 0.01 0.03 0.02 0.02 0.02 0.01 0.00 0.00 0.00 0.01 0.00 0.00 0.01 0.01 0.01 0.02 0.01 0.00 0.01 0.01 0.02 0.02 0.02 0.02 0.01 0.02 0.03 0.04 0.03 0.03 0.02 0.02
0.01 0.00 0.00 0.00 0.00 0.00 0.00 0.01 0.01 0.01 0.01 0.02 0.02 0.02 0.03 0.01 0.01 0.01 0.01 0.00 0.01 0.00 0.00 0.00 0.01 0.01 0.01 0.01 0.02 0.02 0.01 0.02 0.02 0.03 0.02 0.02 0.02 0.02 0.02 0.02 0.02 0.02 0.01 0.02
0.01 0.00 0.00 0.00 0.00 0.00 0.01 0.01 0.01 0.03 0.03 0.03 0.01 0.01 0.03 0.02 0.01 0.01 0.01 0.00 0.00 0.00 0.00 0.00 0.00 0.00 0.00 0.01 0.02 0.02 0.02 0.03 0.03 0.03 0.02 0.02 0.02 0.02 0.02 0.02 0.01 0.01 0.01 0.01
0.00 0.00 0.00 0.00 0.00 0.00 0.00 0.01 0.01 0.05 0.05 0.03 0.02 0.01 0.02 0.03 0.03 0.03 0.02 0.01 0.01 0.01 0.00 0.00 0.00 0.00 0.01 0.01 0.02 0.03 0.04 0.06 0.05 0.05 0.04 0.03 0.02 0.02 0.02 0.02 0.02 0.02 0.02 0.02
0.01 0.01 0.00 0.00 0.00 0.00 0.01 0.01 0.01 0.02 0.02 0.02 0.02 0.03 0.07 0.06 0.03 0.02 0.02 0.01 0.00 0.00 0.00 0.00 0.00 0.01 0.02 0.02 0.03 0.03 0.02 0.03 0.03 0.03 0.04 0.03 0.03 0.03 0.03 0.02 0.02 0.02 0.02 0.02
0.01 0.01 0.00 0.00 0.00 0.01 0.01 0.01 0.01 0.02 0.04 0.03 0.03 0.05 0.06 0.02 0.01 0.01 0.01 0.01 0.01 0.01 0.00 0.01 0.00 0.00 0.01 0.02 0.05 0.07 0.05 0.02 0.02 0.04 0.05 0.06 0.06 0.06 0.04 0.02 0.01 0.01 0.01 0.01
0.00 0.01 0.00 0.00 0.00 0.00 0.00 0.01 0.01 0.02 0.05 0.04 0.04 0.04 0.09 0.04 0.02 0.01 0.01 0.01 0.02 0.02 0.01 0.01 0.01 0.01 0.01 0.01 0.02 0.04 0.04 0.03 0.03 0.04 0.06 0.07 0.05 0.04 0.04 0.04 0.03 0.02 0.01 0.01
0.00 0.00 0.01 0.00 0.00 0.00 0.00 0.00 0.00 0.02 0.02 0.02 0.03 0.04 0.03 0.02 0.01 0.01 0.01 0.01 0.01 0.02 0.01 0.00 0.01 0.01 0.01 0.02 0.02 0.03 0.03 0.04 0.05 0.06 0.07 0.07 0.04 0.05 0.07 0.06 0.05 0.04 0.02 0.02
0.00 0.00 0.01 0.01 0.00 0.00 0.00 0.00 0.01 0.01 0.01 0.03 0.05 0.04 0.02 0.01 0.01 0.01 0.01 0.01 0.01 0.02 0.01 0.01 0.01 0.02 0.02 0.02 0.02 0.03 0.04 0.06 0.08 0.08 0.04 0.03 0.05 0.08 0.08 0.07 0.05 0.05 0.05 0.05
0.00 0.00 0.00 0.00 0.00 0.00 0.00 0.01 0.01 0.01 0.01 0.01 0.02 0.03 0.02 0.01 0.01 0.01 0.01 0.00 0.01 0.03 0.05 0.04 0.02 0.02 0.04 0.03 0.02 0.03 0.05 0.06 0.06 0.04 0.02 0.01 0.02 0.04 0.06 0.07 0.07 0.06 0.08 0.09
0.00 0.00 0.00 0.00 0.01 0.00 0.00 0.01 0.01 0.01 0.01 0.01 0.01 0.01 0.01 0.01 0.01 0.01 0.01 0.00 0.01 0.05 0.08 0.08 0.05 0.03 0.04 0.06 0.06 0.06 0.07 0.05 0.03 0.02 0.01 0.01 0.02 0.02 0.02 0.03 0.04 0.06 0.05 0.05
0.00 0.00 0.01 0.01 0.01 0.00 0.00 0.01 0.02 0.01 0.02 0.01 0.01 0.01 0.01 0.01 0.01 0.00 0.00 0.00 0.02 0.04 0.04 0.05 0.07 0.08 0.06 0.08 0.09 0.09 0.07 0.04 0.02 0.01 0.01 0.01 0.01 0.01 0.01 0.02 0.02 0.03 0.02 0.02
0.00 0.01 0.01 0.01 0.01 0.00 0.01 0.01 0.03 0.02 0.02 0.01 0.02 0.02 0.02 0.01 0.01 0.00 0.00 0.00 0.01 0.01 0.02 0.02 0.03 0.07 0.06 0.08 0.09 0.08 0.05 0.03 0.02 0.01 0.02 0.02 0.02 0.02 0.02 0.01 0.02 0.02 0.03 0.03
0.00 0.00 0.02 0.01 0.01 0.00 0.00 0.02 0.05 0.07 0.05 0.03 0.03 0.03 0.02 0.01 0.01 0.01 0.01 0.00 0.01 0.01 0.01 0.01 0.01 0.05 0.07 0.05 0.06 0.05 0.03 0.02 0.03 0.03 0.03 0.03 0.03 0.03 0.02 0.02 0.02 0.02 0.02 0.02
0.00 0.00 0.01 0.01 0.01 0.00 0.00 0.01 0.02 0.05 0.10 0.05 0.04 0.03 0.02 0.01 0.02 0.02 0.02 0.01 0.01 0.01 0.01 0.02 0.02 0.02 0.05 0.08 0.11 0.08 0.03 0.03 0.04 0.04 0.04 0.03 0.03 0.03 0.03 0.03 0.02 0.02 0.02 0.02
0.00 0.00 0.00 0.00 0.00 0.00 0.00 0.00 0.01 0.02 0.02 0.02 0.03 0.03 0.03 0.03 0.03 0.02 0.01 0.01 0.01 0.01 0.01 0.01 0.01 0.01 0.01 0.02 0.05 0.10 0.10 0.05 0.03 0.04 0.05 0.04 0.04 0.05 0.03 0.02 0.02 0.02 0.02 0.02
0.00 0.00 0.00 0.00 0.00 0.00 0.00 0.00 0.00 0.02 0.04 0.02 0.02 0.02 0.01 0.01 0.01 0.01 0.01 0.00 0.00 0.00 0.01 0.01 0.01 0.01 0.01 0.02 0.02 0.03 0.04 0.04 0.03 0.04 0.05 0.05 0.05 0.05 0.04 0.04 0.04 0.03 0.03 0.04
0.00 0.00 0.01 0.00 0.00 0.00 0.00 0.00 0.01 0.01 0.01 0.02 0.02 0.02 0.01 0.01 0.00 0.00 0.01 0.00 0.00 0.00 0.01 0.01 0.01 0.01 0.02 0.02 0.02 0.02 0.03 0.04 0.05 0.04 0.04 0.04 0.04 0.04 0.04 0.06 0.08 0.07 0.05 0.04
0.01 0.01 0.01 0.01 0.02 0.02 0.01 0.01 0.01 0.02 0.02 0.02 0.01 0.01 0.01 0.01 0.00 0.00 0.00 0.01 0.01 0.01 0.01 0.01 0.01 0.01 0.02 0.02 0.02 0.02 0.03 0.03 0.03 0.03 0.04 0.04 0.05 0.05 0.07 0.10 0.12 0.11 0.09 0.08
0.01 0.02 0.02 0.02 0.02 0.02 0.02 0.02 0.02 0.03 0.02 0.01 0.01 0.00 0.00 0.01 0.01 0.01 0.01 0.00 0.00 0.00 0.00 0.01 0.01 0.01 0.01 0.01 0.02 0.02 0.02 0.03 0.02 0.02 0.03 0.04 0.04 0.05 0.06 0.08 0.10 0.11 0.11 0.09
0.01 0.02 0.02 0.02 0.02 0.02 0.02 0.02 0.02 0.02 0.02 0.01 0.01 0.01 0.01 0.01 0.01 0.01 0.01 0.00 0.00 0.00 0.00 0.01 0.01 0.01 0.01 0.02 0.02 0.02 0.02 0.02 0.02 0.02 0.03 0.02 0.03 0.03 0.03 0.03 0.04 0.06 0.07 0.06
0.01 0.02 0.02 0.02 0.01 0.01 0.01 0.01 0.01 0.01 0.02 0.01 0.01 0.01 0.01 0.01 0.01 0.01 0.01 0.01 0.00 0.00 0.00 0.00 0.01 0.01 0.01 0.02 0.03 0.03 0.02 0.02 0.03 0.03 0.03 0.03 0.03 0.03 0.03 0.03 0.03 0.03 0.03 0.03
MSLP
1009.35 1009.90 1010.40 1010.85 1011.28 1011.73 1012.20 1012.68 1013.15 1013.56 1013.86 1014.01 1013.97 1013.76 1013.37 1012.83 1012.18 1011.47 1010.71 1009.94 1009.17 1008.42 1007.72 1007.11 1006.61 1006.27 1006.12 1006.19 1006.48 1006.97 1007.62 1008.38 1009.19 1010.00 1010.76 1011.44 1012.05 1012.59 1013.08 1013.54 1013.99 1014.45 1014.91 1015.37
1009.68 1010.00 1010.29 1010.59 1010.95 1011.42 1012.00 1012.67 1013.36 1013.99 1014.47 1014.74 1014.77 1014.54 1014.09 1013.49 1012.81 1012.12 1011.46 1010.86 1010.33 1009.85 1009.41 1009.00 1008.64 1008.33 1008.12 1008.03 1008.10 1008.34 1008.75 1009.30 1009.95 1010.65 1011.34 1012.00 1012.61 1013.14 1013.62 1014.05 1014.47 1014.88 1015.30 1015.72
1009.76 1009.85 1009.93 1010.10 1010.42 1010.95 1011.69 1012.58 1013.53 1014.40 1015.08 1015.48 1015.55 1015.29 1014.78 1014.09 1013.34 1012.62 1012.01 1011.53 1011.18 1010.93 1010.72 1010.51 1010.28 1010.03 1009.78 1009.59 1009.50 1009.55 1009.77 1010.16 1010.68 1011.30 1011.96 1012.61 1013.21 1013.74 1014.21 1014.61 1014.98 1015.34 1015.70 1016.08
1009.64 1009.50 1009.41 1009.48 1009.80 1010.44 1011.37 1012.50 1013.72 1014.84 1015.71 1016.23 1016.33 1016.03 1015.42 1014.61 1013.75 1012.97 1012.36 1011.95 1011.73 1011.64 1011.62 1011.58 1011.48 1011.30 1011.06 1010.81 1010.62 1010.55 1010.65 1010.93 1011.38 1011.95 1012.59 1013.24 1013.84 1014.37 1014.81 1015.18 1015.50 1015.80 1016.11 1016.43
1009.40 1009.07 1008.84 1008.86 1009.23 1010.00 1011.14 1012.52 1013.99 1015.34 1016.38 1016.99 1017.11 1016.75 1016.03 1015.08 1014.09 1013.22 1012.56 1012.17 1012.02 1012.06 1012.18 1012.29 1012.31 1012.21 1012.00 1011.75 1011.51 1011.38 1011.41 1011.63 1012.03 1012.58 1013.21 1013.85 1014.45 1014.97 1015.39 1015.72 1015.99 1016.23 1016.48 1016.75
1009.13 1008.66 1008.36 1008.38 1008.83 1009.74 1011.07 1012.69 1014.37 1015.90 1017.07 1017.74 1017.85 1017.42 1016.58 1015.50 1014.38 1013.40 1012.68 1012.27 1012.16 1012.28 1012.51 1012.73 1012.85 1012.84 1012.69 1012.46 1012.23 1012.07 1012.07 1012.25 1012.63 1013.16 1013.77 1014.41 1015.00 1015.49 1015.89 1016.18 1016.40 1016.60 1016.80 1017.02
1008.91 1008.37 1008.04 1008.10 1008.65 1009.70 1011.20 1012.98 1014.82 1016.47 1017.72 1018.40 1018.48 1017.98 1017.04 1015.84 1014.61 1013.54 1012.76 1012.33 1012.24 1012.41 1012.71 1013.02 1013.24 1013.30 1013.22 1013.04 1012.82 1012.67 1012.66 1012.82 1013.17 1013.67 1014.26 1014.87 1015.43 1015.90 1016.26 1016.52 1016.71 1016.87 1017.04 1017.23
1008.77 1008.21 1007.92 1008.05 1008.69 1009.86 1011.47 1013.34 1015.25 1016.95 1018.20 1018.87 1018.90 1018.33 1017.32 1016.05 1014.76 1013.64 1012.83 1012.40 1012.32 1012.52 1012.88 1013.26 1013.54 1013.68 1013.66 1013.53 1013.35 1013.21 1013.19 1013.34 1013.66 1014.12 1014.66 1015.23 1015.75 1016.18 1016.51 1016.74 1016.91 1017.05 1017.19 1017.37
1008.69 1008.18 1007.97 1008.17 1008.89 1010.12 1011.77 1013.66 1015.55 1017.20 1018.40 1019.01 1018.99 1018.39 1017.35 1016.07 1014.78 1013.67 1012.88 1012.47 1012.43 1012.66 1013.06 1013.48 1013.83 1014.02 1014.06 1013.97 1013.83 1013.71 1013.69 1013.82 1014.09 1014.50 1014.99 1015.49 1015.96 1016.35 1016.64 1016.85 1017.00 1017.13 1017.27 1017.44
1008.64 1008.23 1008.10 1008.39 1009.16 1010.39 1012.00 1013.81 1015.59 1017.13 1018.22 1018.76 1018.69 1018.08 1017.07 1015.85 1014.64 1013.61 1012.89 1012.54 1012.54 1012.82 1013.25 1013.71 1014.09 1014.33 1014.42 1014.38 1014.27 1014.17 1014.15 1014.25 1014.49 1014.84 1015.25 1015.69 1016.09 1016.43 1016.69 1016.87 1017.01 1017.14 1017.29 1017.47
1008.57 1008.29 1008.27 1008.61 1009.38 1010.56 1012.05 1013.70 1015.31 1016.67 1017.62 1018.06 1017.96 1017.39 1016.47 1015.37 1014.30 1013.41 1012.82 1012.57 1012.64 1012.95 1013.41 1013.89 1014.30 1014.57 1014.70 1014.71 1014.64 1014.57 1014.56 1014.65 1014.84 1015.13 1015.48 1015.84 1016.18 1016.46 1016.68 1016.85 1016.99 1017.12 1017.27 1017.45
1008.51 1008.35 1008.42 1008.80 1009.53 1010.60 1011.91 1013.34 1014.71 1015.86 1016.65 1016.99 1016.88 1016.38 1015.59 1014.68 1013.80 1013.10 1012.66 1012.53 1012.67 1013.03 1013.51 1014.00 1014.42 1014.72 1014.88 1014.94 1014.92 1014.89 1014.90 1014.99 1015.15 1015.39 1015.68 1015.98 1016.25 1016.48 1016.67 1016.81 1016.94 1017.07 1017.22 1017.40
1008.49 1008.44 1008.58 1008.96 1009.61 1010.52 1011.62 1012.80 1013.91 1014.83 1015.44 1015.70 1015.60 1015.19 1014.56 1013.85 1013.20 1012.70 1012.43 1012.42 1012.64 1013.03 1013.50 1013.99 1014.41 1014.72 1014.92 1015.02 1015.06 1015.09 1015.14 1015.24 1015.40 1015.61 1015.85 1016.09 1016.30 1016.49 1016.64 1016.77 1016.88 1017.01 1017.15 1017.32
1008.59 1008.63 1008.80 1009.15 1009.70 1010.43 1011.29 1012.20 1013.04 1013.73 1014.19 1014.37 1014.28 1013.97 1013.51 1013.01 1012.57 1012.28 1012.16 1012.25 1012.52 1012.92 1013.38 1013.84 1014.25 1014.57 1014.80 1014.95 1015.05 1015.14 1015.24 1015.38 1015.55 1015.75 1015.95 1016.15 1016.33 1016.48 1016.60 1016.70 1016.80 1016.92 1017.05 1017.20
1008.91 1009.00 1009.17 1009.46 1009.88 1010.42 1011.04 1011.69 1012.28 1012.75 1013.06 1013.17 1013.10 1012.88 1012.58 1012.27 1012.02 1011.88 1011.90 1012.06 1012.35 1012.73 1013.15 1013.57 1013.94 1014.26 1014.51 1014.71 1014.88 1015.04 1015.21 1015.39 1015.58 1015.78 1015.98 1016.15 1016.30 1016.42 1016.52 1016.61 1016.70 1016.80 1016.92 1017.04
1009.49 1009.58 1009.72 1009.93 1010.22 1010.57 1010.97 1011.38 1011.74 1012.02 1012.19 1012.23 1012.17 1012.03 1011.85 1011.69 1011.58 1011.57 1011.66 1011.85 1012.13 1012.47 1012.83 1013.19 1013.52 1013.82 1014.09 1014.33 1014.56 1014.79 1015.02 1015.26 1015.49 1015.71 1015.90 1016.06 1016.19 1016.30 1016.39 1016.47 1016.56 1016.66 1016.76 1016.86
1010.30 1010.37 1010.46 1010.57 1010.72 1010.90 1011.10 1011.30 1011.46 1011.57 1011.62 1011.60 1011.54 1011.44 1011.35 1011.28 1011.27 1011.33 1011.46 1011.65 1011.90 1012.17 1012.46 1012.76 1013.04 1013.32 1013.59 1013.87 1014.15 1014.44 1014.73 1015.02 1015.29 1015.53 1015.73 1015.89 1016.02 1016.13 1016.22 1016.30 1016.40 1016.49 1016.59 1016.68
1011.25 1011.27 1011.28 1011.30 1011.33 1011.36 1011.39 1011.41 1011.41 1011.37 1011.32 1011.24 1011.15 1011.07 1011.02 1011.01 1011.05 1011.15 1011.28 1011.46 1011.66 1011.87 1012.09 1012.32 1012.56 1012.82 1013.09 1013.39 1013.72 1014.05 1014.39 1014.72 1015.03 1015.29 1015.51 1015.68 1015.82 1015.93 1016.04 1016.14 1016.24 1016.34 1016.44 1016.51
1012.17 1012.12 1012.06 1011.98 1011.90 1011.81 1011.71 1011.59 1011.45 1011.30 1011.15 1011.01 1010.90 1010.82 1010.78 1010.80 1010.86 1010.97 1011.10 1011.26 1011.42 1011.59 1011.77 1011.95 1012.16 1012.40 1012.68 1012.99 1013.34 1013.72 1014.09 1014.45 1014.78 1015.07 1015.31 1015.49 1015.65 1015.78 1015.89 1016.01 1016.13 1016.24 1016.33 1016.40
1012.86 1012.74 1012.61 1012.47 1012.30 1012.12 1011.91 1011.69 1011.45 1011.21 1010.99 1010.80 1010.65 1010.56 1010.52 1010.56 1010.64 1010.76 1010.90 1011.05 1011.21 1011.36 1011.52 1011.69 1011.89 1012.13 1012.41 1012.74 1013.11 1013.50 1013.90 1014.28 1014.63 1014.93 1015.18 1015.39 1015.56 1015.71 1015.84 1015.97 1016.09 1016.20 1016.29 1016.34
1013.18 1013.02 1012.83 1012.63 1012.41 1012.16 1011.89 1011.60 1011.29 1010.99 1010.72 1010.48 1010.31 1010.21 1010.18 1010.23 1010.34 1010.49 1010.66 1010.84 1011.03 1011.20 1011.38 1011.57 1011.79 1012.04 1012.34 1012.68 1013.06 1013.46 1013.87 1014.26 1014.62 1014.93 1015.20 1015.42 1015.60 1015.76 1015.89 1016.02 1016.14 1016.23 1016.30 1016.32
1013.09 1012.89 1012.67 1012.44 1012.19 1011.91 1011.60 1011.28 1010.94 1010.60 1010.30 1010.05 1009.86 1009.77 1009.76 1009.84 1009.99 1010.19 1010.42 1010.66 1010.91 1011.14 1011.37 1011.61 1011.86 1012.14 1012.45 1012.80 1013.19 1013.59 1014.00 1014.39 1014.75 1015.07 1015.35 1015.57 1015.76 1015.92 1016.05 1016.15 1016.24 1016.30 1016.32 1016.29
1012.61 1012.40 1012.17 1011.93 1011.68 1011.40 1011.10 1010.77 1010.43 1010.09 1009.78 1009.53 1009.36 1009.28 1009.31 1009.43 1009.64 1009.91 1010.22 1010.54 1010.87 1011.19 1011.49 1011.78 1012.08 1012.39 1012.72 1013.07 1013.45 1013.84 1014.24 1014.63 1014.99 1015.31 1015.59 1015.82 1016.00 1016.14 1016.25 1016.32 1016.35 1016.35 1016.31 1016.21
1011.88 1011.67 1011.46 1011.24 1011.02 1010.77 1010.49 1010.19 1009.87 1009.56 1009.28 1009.06 1008.92 1008.87 1008.94 1009.12 1009.39 1009.73 1010.12 1010.53 1010.94 1011.34 1011.71 1012.05 1012.39 1012.71 1013.05 1013.39 1013.76 1014.13 1014.51 1014.89 1015.24 1015.56 1015.84 1016.06 1016.24 1016.36 1016.42 1016.44 1016.41 1016.33 1016.21 1016.03
1011.07 1010.88 1010.70 1010.53 1010.35 1010.16 1009.94 1009.70 1009.44 1009.18 1008.94 1008.76 1008.66 1008.66 1008.77 1009.00 1009.32 1009.72 1010.18 1010.65 1011.12 1011.57 1011.98 1012.35 1012.70 1013.02 1013.34 1013.66 1014.00 1014.34 1014.70 1015.06 1015.40 1015.72 1015.99 1016.21 1016.38 1016.47 1016.50 1016.46 1016.36 1016.20 1015.99 1015.73
1010.33 1010.18 1010.05 1009.93 1009.83 1009.71 1009.58 1009.42 1009.24 1009.06 1008.89 1008.77 1008.72 1008.76 1008.90 1009.16 1009.51 1009.93 1010.40 1010.90 1011.38 1011.84 1012.25 1012.61 1012.93 1013.22 1013.50 1013.78 1014.06 1014.37 1014.70 1015.04 1015.37 1015.68 1015.96 1016.19 1016.34 1016.42 1016.41 1016.33 1016.16 1015.93 1015.65 1015.33
Thickness
5838 5820 5809 5818 5825 5824 5820 5812 5808 5820 5841 5830 5819 5817 5823 5828 5827 5823 5822 5821 5820 5821 5825 5826 5825 5824 5821 5818 5816 5814 5811 5809 5807 5803 5800 5796 5794 5794 5793 5792 5791 5789 5787 5785
5816 5811 5832 5842 5840 5833 5824 5813 5812 5827 5840 5829 5818 5818 5826 5830 5830 5830 5827 5824 5823 5822 5822 5823 5824 5823 5821 5818 5816 5815 5812 5811 5809 5806 5804 5800 5797 5794 5793 5792 5790 5788 5786 5784
5809 5826 5846 5842 5833 5827 5823 5816 5818 5820 5829 5830 5816 5804 5814 5825 5831 5833 5834 5832 5830 5827 5824 5823 5824 5824 5822 5819 5818 5818 5815 5813 5811 5809 5805 5801 5797 5793 5791 5788 5787 5787 5785 5783
5821 5840 5843 5835 5831 5831 5815 5837 5835 5828 5811 5798 5807 5776 5800 5814 5819 5826 5829 5831 5831 5832 5830 5827 5827 5825 5824 5823 5822 5819 5817 5814 5812 5810 5805 5799 5794 5789 5789 5788 5786 5786 5784 5782
5819 5836 5835 5830 5838 5842 5833 5846 5836 5827 5811 5796 5800 5782 5790 5811 5809 5819 5827 5832 5835 5835 5834 5832 5831 5830 5829 5827 5824 5820 5817 5815 5813 5810 5806 5801 5796 5793 5790 5788 5785 5783 5782 5781
5831 5847 5846 5845 5853 5853 5848 5835 5824 5811 5796 5776 5792 5783 5783 5802 5814 5821 5828 5834 5838 5839 5838 5835 5835 5833 5830 5829 5826 5822 5817 5814 5813 5810 5807 5802 5797 5793 5788 5785 5782 5780 5779 5778
5814 5832 5848 5855 5839 5841 5835 5802 5775 5770 5760 5767 5793 5786 5790 5820 5832 5833 5833 5836 5840 5841 5839 5835 5833 5831 5829 5826 5824 5821 5817 5813 5812 5809 5806 5803 5798 5794 5789 5785 5782 5779 5777 5776
5791 5797 5834 5847 5839 5826 5825 5805 5771 5757 5753 5765 5786 5782 5803 5832 5838 5841 5841 5842 5842 5840 5839 5837 5835 5833 5830 5828 5824 5822 5817 5813 5811 5808 5805 5802 5799 5795 5791 5788 5784 5780 5778 5777
5792 5798 5839 5851 5855 5841 5821 5807 5805 5777 5770 5760 5771 5788 5810 5831 5831 5833 5834 5834 5835 5836 5836 5835 5835 5834 5832 5829 5826 5823 5818 5814 5811 5809 5804 5800 5798 5794 5791 5788 5785 5782 5779 5777
5810 5799 5824 5843 5848 5840 5832 5819 5793 5774 5755 5748 5761 5773 5781 5805 5814 5823 5825 5826 5829 5832 5834 5834 5834 5833 5832 5831 5828 5825 5820 5816 5812 5809 5804 5801 5797 5794 5790 5786 5782 5780 5778 5776
5814 5794 5804 5819 5818 5813 5817 5811 5792 5771 5766 5748 5743 5762 5808 5809 5816 5819 5822 5826 5828 5829 5830 5831 5832 5832 5831 5828 5825 5821 5817 5812 5808 5805 5803 5799 5795 5792 5789 5785 5782 5779 5776 5774
5809 5789 5780 5800 5824 5833 5823 5810 5792 5770 5763 5758 5750 5765 5819 5816 5819 5821 5822 5826 5828 5829 5830 5830 5830 5827 5825 5822 5819 5816 5813 5809 5805 5802 5799 5796 5793 5790 5787 5784 5781 5777 5774 5771
5805 5781 5762 5771 5791 5808 5809 5810 5802 5784 5767 5756 5749 5768 5813 5814 5816 5818 5819 5822 5824 5825 5825 5825 5824 5822 5819 5817 5815 5812 5809 5806 5802 5798 5794 5792 5790 5787 5784 5781 5778 5775 5772 5768
5809 5777 5765 5759 5769 5787 5793 5801 5802 5785 5762 5757 5763 5774 5794 5803 5806 5810 5814 5817 5819 5820 5819 5818 5816 5816 5814 5812 5809 5808 5805 5803 5799 5795 5791 5788 5786 5784 5781 5779 5775 5772 5768 5764
5794 5772 5778 5780 5790 5794 5793 5795 5796 5787 5779 5768 5773 5776 5789 5799 5804 5808 5811 5812 5812 5812 5813 5813 5810 5809 5808 5807 5805 5803 5801 5800 5797 5792 5788 5786 5784 5781 5778 5774 5771 5768 5764 5761
5777 5767 5769 5771 5785 5786 5782 5789 5791 5788 5786 5780 5778 5777 5795 5802 5804 5803 5804 5804 5803 5804 5806 5808 5807 5805 5803 5802 5800 5798 5797 5796 5793 5789 5785 5783 5779 5776 5773 5769 5766 5763 5759 5756
5761 5757 5747 5745 5766 5769 5757 5777 5782 5780 5782 5779 5769 5776 5789 5790 5792 5794 5797 5798 5798 5799 5801 5802 5802 5801 5801 5798 5796 5794 5792 5791 5787 5784 5781 5778 5774 5770 5768 5765 5761 5757 5754 5750
5754 5744 5733 5733 5743 5731 5756 5785 5787 5778 5777 5781 5781 5782 5787 5788 5790 5793 5795 5793 5793 5794 5794 5795 5795 5795 5795 5794 5793 5791 5787 5784 5780 5777 5774 5771 5767 5764 5761 5758 5755 5752 5749 5745
5758 5743 5727 5719 5719 5729 5757 5776 5779 5768 5761 5776 5776 5779 5782 5787 5783 5781 5789 5792 5791 5791 5790 5789 5790 5789 5788 5786 5785 5782 5779 5776 5772 5769 5767 5764 5761 5757 5754 5751 5748 5746 5742 5739
5747 5740 5724 5716 5715 5713 5741 5772 5782 5768 5746 5770 5773 5771 5773 5773 5756 5763 5783 5786 5786 5786 5785 5783 5783 5782 5779 5778 5777 5773 5769 5766 5764 5763 5761 5759 5755 5751 5747 5745 5743 5740 5737 5733
5723 5719 5714 5709 5708 5718 5748 5766 5768 5735 5735 5761 5766 5767 5767 5762 5762 5770 5777 5779 5779 5779 5779 5777 5774 5772 5770 5770 5767 5762 5759 5757 5757 5755 5753 5750 5748 5744 5741 5738 5736 5733 5730 5726
5709 5704 5702 5700 5697 5707 5746 5750 5739 5735 5749 5755 5758 5761 5760 5761 5764 5767 5769 5769 5770 5769 5769 5767 5764 5762 5762 5761 5757 5752 5749 5750 5749 5746 5743 5740 5738 5737 5735 5730 5727 5724 5721 5716
5705 5707 5704 5703 5705 5724 5737 5738 5742 5745 5744 5748 5750 5754 5754 5753 5753 5756 5757 5758 5758 5759 5757 5756 5754 5751 5751 5750 5748 5742 5741 5741 5739 5736 5733 5731 5729 5727 5725 5721 5718 5714 5711 5707
5702 5709 5702 5699 5708 5720 5729 5734 5738 5741 5741 5744 5747 5748 5748 5744 5744 5744 5745 5745 5746 5747 5747 5746 5744 5740 5739 5739 5737 5735 5733 5731 5728 5725 5722 5721 5719 5716 5714 5712 5709 5705 5701 5698
5694 5696 5690 5690 5701 5709 5717 5722 5728 5732 5736 5737 5739 5740 5739 5737 5735 5736 5734 5735 5736 5736 5736 5735 5732 5730 5728 5728 5726 5725 5723 5720 5716 5713 5711 5710 5708 5705 5703 5701 5699 5697 5695 5692
5688 5686 5681 5682 5695 5695 5703 5715 5721 5722 5724 5727 5728 5728 5730 5728 5727 5727 5726 5727 5726 5726 5725 5723 5721 5719 5718 5717 5715 5714 5712 5709 5705 5702 5700 5698 5696 5695 5693 5690 5688 5688 5686 5685